Regional Weather Roundup
Issued by NWS Portland, ME

Current Version | Previous Version | Text Only | Print | Product List | Glossary Off
Versions: 1 2 3 4 5 6 7 8 9 10 11 12 13 14 15 16 17 18 19 20 21 22 23 24 25 26 27 28 29 30 31 32 33 34 35 36 37 38 39 40 41 42 43 44 45 46 47 48 49 50
327 ASUS41 KGYX 182010 RWRGYX WEATHER ROUNDUP FOR MAINE AND NEW HAMPSHIRE NATIONAL WEATHER SERVICE GRAY ME 300 PM EST FRI JAN 18 2019 MEZ002-005-006-010-012-015-018-020-021-024-026-027-029-182100- MAINE CITY SKY/WX TMP DP RH WIND PRES REMARKS PORTLAND PTSUNNY 31 17 56 CALM 30.01F SANFORD CLOUDY 33 22 63 CALM 30.00F BAR HARBOR CLOUDY 31 26 82 S15G22 30.03F WISCASSET CLOUDY 32 23 69 CALM 30.02F ROCKLAND MIX PCPN 35 28 75 S9 30.01F FRYEBURG FLURRIES 24 17 74 CALM 29.99F LEWISTONAUBURN MIX PCPN 25 12 58 CALM 30.00F AUGUSTA CLOUDY 25 15 66 CALM 30.00F WATERVILLE CLOUDY 26 16 65 MISG 29.97F BANGOR LGT SNOW 29 28 96 S8 30.00F VSB 3/4 GREENVILLE N/A 20 13 74 S9 29.86F MILLINOCKET LGT SNOW 22 18 85 SE3 29.98F VSB 1 HOULTON LGT SNOW 25 21 85 S8 29.95F FOG PRESQUE ISLE LGT SNOW 20 16 84 SE8 29.94F FOG FRENCHVILLE LGT SNOW 17 11 77 SE9 29.86F CARIBOU LGT SNOW 18 13 80 S12 29.91F VSB 1 WCI 5 $$ NHZ002-005-008-009-011-012-014-182100- NEW HAMPSHIRE CITY SKY/WX TMP DP RH WIND PRES REMARKS PORTSMOUTH PTSUNNY 37 25 62 S9 29.99F ROCHESTER CLOUDY 33 22 63 VRB3 30.00F NASHUA CLOUDY 36 26 67 VRB5 30.01F MANCHESTER PTSUNNY 35 22 58 S6 29.99F CONCORD CLOUDY 31 23 72 S6 29.99F LACONIA FLURRIES 22 15 75 CALM 29.99F PLYMOUTH LGT SNOW 22 17 81 CALM 30.00S BERLIN LGT SNOW 28 21 75 SE7 29.89S WHITEFIELD LGT SNOW 27 23 85 CALM 29.91S FOG JAFFREY CLOUDY 32 26 78 SW8 29.96S KEENE CLOUDY 31 22 69 CALM 29.99S LEBANON CLOUDY 29 20 69 S7 29.96S MT WASHINGTON NOT AVBL $$ VTZ005-007-008-182100- VERMONT CITY SKY/WX TMP DP RH WIND PRES REMARKS ST JOHNSBURY N/A 26 21 81 MISG 29.92S MONTPELIER CLOUDY 25 21 85 S14 29.93S WCI 13 BURLINGTON CLOUDY 30 23 75 S10 29.95R $$ MAZ007-012-024-CTZ003-RIZ002-NYZ038-NYZ072-182100- SOUTHERN NEW ENGLAND AND NY CITY SKY/WX TMP DP RH WIND PRES REMARKS BOSTON PTSUNNY 42 27 55 VRB5 30.01F WORCESTER CLOUDY 33 26 75 SW7 29.97F NANTUCKET CLOUDY 38 36 92 NE7 30.02S PROVIDENCE PTSUNNY 38 31 76 S6 30.03F HARTFORD PTSUNNY 37 27 67 S7 30.01F ALBANY FLURRIES 33 26 75 S10 30.02R NEW YORK CITY CLOUDY 38 32 79 NE6 30.04F $$ ANZ081-ANZ082-ANZ150-NHZ014-MEZ023>029-182100- COASTAL MARINE OBSERVATIONS STATION/POSITION TIME TEMP WIND PRES WAVE AIR SEA DIR/SP/G HT/PER (UTC) (F) (DEG/KT/KT) (MB) (FT/S) MOUNT DESERT ROC 2000 33 130/ 21/ 23 1017.4F MATINICUS ROCK 2000 35 180/ 19/ 21 1016.2F ISLE OF SHOALS 2000 37 190/ 16/ 17 1015.9F JEFFREYS LEDGE 1938 44 N/A 3/ 4 CASHES LEDGE BUO 1950 36 40 1017.1F 4/ 5 $$ .............KEY.............. WCI - WIND CHILL TC - TEMPERATURE IN CELSIUS VSB - VISIBILITY IN MILES HX - HEAT INDEX FAIR- INDICATES FEW OR NO CLOUDS BELOW 12,000 FT, WITH NO SIGNIFICANT WEATHER AND/OR OBSTRUCTIONS TO VISIBILITY.

USA.gov is the U.S. government's official web portal to all federal, state and local government web resources and services.